Time,TemperatureF,DewpointF,PressureIn,WindDirection,WindDirectionDegrees,WindSpeedMPH,WindSpeedGustMPH,Humidity,HourlyPrecipIn,Conditions,Clouds,dailyrainin,SoftwareType,DateUTC
2013-06-09 00:02:00,58.0,-99.9,-100.00,ENE,70,13.0,-999.0,0,-99.99,,,-99.99,,2013-06-09 05:02:00,
2013-06-09 00:12:00,58.0,-99.9,-100.00,East,95,8.0,-999.0,0,-99.99,,,-99.99,,2013-06-09 05:12:00,
2013-06-09 00:22:00,58.0,-99.9,-100.00,ESE,109,10.0,-999.0,0,-99.99,,,-99.99,,2013-06-09 05:22:00,
2013-06-09 00:32:00,59.0,-99.9,-100.00,East,99,17.0,-999.0,0,-99.99,,,-99.99,,2013-06-09 05:32:00,
2013-06-09 00:42:00,58.0,-99.9,-100.00,East,100,18.0,-999.0,0,-99.99,,,-99.99,,2013-06-09 05:42:00,
2013-06-09 00:52:00,58.0,-99.9,-100.00,East,100,11.0,-999.0,0,-99.99,,,-99.99,,2013-06-09 05:52:00,
2013-06-09 01:02:00,58.0,-99.9,-100.00,East,92,15.0,-999.0,0,-99.99,,,-99.99,,2013-06-09 06:02:00,
2013-06-09 01:12:00,58.0,-99.9,-100.00,ESE,110,9.0,-999.0,0,-99.99,,,-99.99,,2013-06-09 06:12:00,
2013-06-09 01:22:00,58.0,-99.9,-100.00,East,91,11.0,-999.0,0,-99.99,,,-99.99,,2013-06-09 06:22:00,
2013-06-09 01:32:00,58.0,-99.9,-100.00,ENE,73,9.0,-999.0,0,-99.99,,,-99.99,,2013-06-09 06:32:00,
2013-06-09 01:42:00,58.0,-99.9,-100.00,ESE,108,10.0,-999.0,0,-99.99,,,-99.99,,2013-06-09 06:42:00,
2013-06-09 01:52:00,58.0,-99.9,-100.00,East,94,14.0,-999.0,0,-99.99,,,-99.99,,2013-06-09 06:52:00,
2013-06-09 02:02:00,58.0,-99.9,-100.00,East,85,14.0,-999.0,0,-99.99,,,-99.99,,2013-06-09 07:02:00,
2013-06-09 02:12:00,59.0,-99.9,-100.00,East,98,14.0,-999.0,0,-99.99,,,-99.99,,2013-06-09 07:12:00,
2013-06-09 02:22:00,59.0,-99.9,-100.00,ESE,107,11.0,-999.0,0,-99.99,,,-99.99,,2013-06-09 07:22:00,
2013-06-09 02:32:00,59.0,-99.9,-100.00,ESE,104,12.0,-999.0,0,-99.99,,,-99.99,,2013-06-09 07:32:00,
2013-06-09 02:42:00,59.0,-99.9,-100.00,ESE,109,5.0,-999.0,0,-99.99,,,-99.99,,2013-06-09 07:42:00,
2013-06-09 02:53:00,59.0,-99.9,-100.00,East,89,6.0,-999.0,0,-99.99,,,-99.99,,2013-06-09 07:53:00,
2013-06-09 03:02:00,59.0,-99.9,-100.00,East,101,13.0,-999.0,0,-99.99,,,-99.99,,2013-06-09 08:02:00,
2013-06-09 03:12:00,59.0,-99.9,-100.00,ESE,105,12.0,-999.0,0,-99.99,,,-99.99,,2013-06-09 08:12:00,
2013-06-09 03:22:00,59.0,-99.9,-100.00,ESE,120,19.0,-999.0,0,-99.99,,,-99.99,,2013-06-09 08:22:00,
2013-06-09 03:32:00,59.0,-99.9,-100.00,ESE,111,15.0,-999.0,0,-99.99,,,-99.99,,2013-06-09 08:32:00,
2013-06-09 03:42:00,59.0,-99.9,-100.00,ESE,122,11.0,-999.0,0,-99.99,,,-99.99,,2013-06-09 08:42:00,
2013-06-09 03:53:00,59.0,-99.9,-100.00,East,93,13.0,-999.0,0,-99.99,,,-99.99,,2013-06-09 08:53:00,
2013-06-09 04:02:00,59.0,-99.9,-100.00,East,101,10.0,-999.0,0,-99.99,,,-99.99,,2013-06-09 09:02:00,
2013-06-09 04:12:00,59.0,-99.9,-100.00,ESE,110,14.0,-999.0,0,-99.99,,,-99.99,,2013-06-09 09:12:00,
2013-06-09 04:22:00,59.0,-99.9,-100.00,ENE,77,7.0,-999.0,0,-99.99,,,-99.99,,2013-06-09 09:22:00,
2013-06-09 04:33:00,59.0,-99.9,-100.00,ESE,105,10.0,-999.0,0,-99.99,,,-99.99,,2013-06-09 09:33:00,
2013-06-09 04:43:00,59.0,-99.9,-100.00,East,86,15.0,-999.0,0,-99.99,,,-99.99,,2013-06-09 09:43:00,
2013-06-09 04:53:00,59.0,-99.9,-100.00,East,80,10.0,-999.0,0,-99.99,,,-99.99,,2013-06-09 09:53:00,
2013-06-09 05:03:00,59.0,-99.9,-100.00,ENE,57,9.0,-999.0,0,-99.99,,,-99.99,,2013-06-09 10:03:00,
2013-06-09 05:13:00,59.0,-99.9,-100.00,ENE,72,10.0,-999.0,0,-99.99,,,-99.99,,2013-06-09 10:13:00,
2013-06-09 05:23:00,59.0,-99.9,-100.00,ENE,61,10.0,-999.0,0,-99.99,,,-99.99,,2013-06-09 10:23:00,
2013-06-09 05:33:00,59.0,-99.9,-100.00,ENE,68,12.0,-999.0,0,-99.99,,,-99.99,,2013-06-09 10:33:00,
2013-06-09 05:43:00,59.0,-99.9,-100.00,ENE,65,10.0,-999.0,0,-99.99,,,-99.99,,2013-06-09 10:43:00,
2013-06-09 05:52:00,59.0,-99.9,-100.00,NE,55,8.0,-999.0,0,-99.99,,,-99.99,,2013-06-09 10:52:00,
2013-06-09 06:02:00,59.0,-99.9,-100.00,NE,40,4.0,-999.0,0,-99.99,,,-99.99,,2013-06-09 11:02:00,
2013-06-09 06:12:00,58.0,-99.9,-100.00,ENE,60,8.0,-999.0,0,-99.99,,,-99.99,,2013-06-09 11:12:00,
2013-06-09 06:22:00,59.0,-99.9,-100.00,NE,51,9.0,-999.0,0,-99.99,,,-99.99,,2013-06-09 11:22:00,
2013-06-09 06:32:00,58.0,-99.9,-100.00,NE,47,10.0,-999.0,0,-99.99,,,-99.99,,2013-06-09 11:32:00,
2013-06-09 06:42:00,59.0,-99.9,-100.00,NNE,32,12.0,-999.0,0,-99.99,,,-99.99,,2013-06-09 11:42:00,
2013-06-09 06:53:00,59.0,-99.9,-100.00,NNE,24,9.0,-999.0,0,-99.99,,,-99.99,,2013-06-09 11:53:00,
2013-06-09 07:03:00,58.0,-99.9,-100.00,NNE,29,13.0,-999.0,0,-99.99,,,-99.99,,2013-06-09 12:03:00,
2013-06-09 07:12:00,59.0,-99.9,-100.00,NNE,30,11.0,-999.0,0,-99.99,,,-99.99,,2013-06-09 12:12:00,
2013-06-09 07:22:00,59.0,-99.9,-100.00,NNE,30,15.0,-999.0,0,-99.99,,,-99.99,,2013-06-09 12:22:00,
2013-06-09 07:32:00,59.0,-99.9,-100.00,NNE,28,13.0,-999.0,0,-99.99,,,-99.99,,2013-06-09 12:32:00,
2013-06-09 07:42:00,59.0,-99.9,-100.00,NNE,14,10.0,-999.0,0,-99.99,,,-99.99,,2013-06-09 12:42:00,
2013-06-09 07:53:00,59.0,-99.9,-100.00,North,11,11.0,-999.0,0,-99.99,,,-99.99,,2013-06-09 12:53:00,
2013-06-09 08:02:00,59.0,-99.9,-100.00,NNE,20,14.0,-999.0,0,-99.99,,,-99.99,,2013-06-09 13:02:00,
2013-06-09 08:13:00,59.0,-99.9,-100.00,NNE,13,14.0,-999.0,0,-99.99,,,-99.99,,2013-06-09 13:13:00,
2013-06-09 08:23:00,59.0,-99.9,-100.00,NNE,18,17.0,-999.0,0,-99.99,,,-99.99,,2013-06-09 13:23:00,
2013-06-09 08:32:00,59.0,-99.9,-100.00,North,3,13.0,-999.0,0,-99.99,,,-99.99,,2013-06-09 13:32:00,
2013-06-09 08:43:00,59.0,-99.9,-100.00,NNE,23,14.0,-999.0,0,-99.99,,,-99.99,,2013-06-09 13:43:00,
2013-06-09 08:52:00,59.0,-99.9,-100.00,NNE,23,14.0,-999.0,0,-99.99,,,-99.99,,2013-06-09 13:52:00,
2013-06-09 09:02:00,59.0,-99.9,-100.00,North,-999,18.0,-999.0,0,-99.99,,,-99.99,,2013-06-09 14:02:00,
2013-06-09 09:12:00,59.0,-99.9,-100.00,North,-999,21.0,-999.0,0,-99.99,,,-99.99,,2013-06-09 14:12:00,
2013-06-09 09:22:00,59.0,-99.9,-100.00,NNW,343,15.0,-999.0,0,-99.99,,,-99.99,,2013-06-09 14:22:00,
2013-06-09 09:32:00,59.0,-99.9,-100.00,NNW,332,15.0,-999.0,0,-99.99,,,-99.99,,2013-06-09 14:32:00,
2013-06-09 09:43:00,59.0,-99.9,-100.00,North,-999,19.0,-999.0,0,-99.99,,,-99.99,,2013-06-09 14:43:00,
2013-06-09 09:52:00,59.0,-99.9,-100.00,NNW,343,20.0,-999.0,0,-99.99,,,-99.99,,2013-06-09 14:52:00,
2013-06-09 10:02:00,59.0,-99.9,-100.00,NNW,343,15.0,-999.0,0,-99.99,,,-99.99,,2013-06-09 15:02:00,
2013-06-09 10:12:00,58.0,-99.9,-100.00,North,-999,18.0,-999.0,0,-99.99,,,-99.99,,2013-06-09 15:12:00,
2013-06-09 10:22:00,58.0,-99.9,-100.00,North,-999,26.0,-999.0,0,-99.99,,,-99.99,,2013-06-09 15:22:00,
2013-06-09 10:33:00,58.0,-99.9,-100.00,North,-999,14.0,-999.0,0,-99.99,,,-99.99,,2013-06-09 15:33:00,
2013-06-09 10:44:00,59.0,-99.9,-100.00,North,-999,16.0,-999.0,0,-99.99,,,-99.99,,2013-06-09 15:44:00,
2013-06-09 10:53:00,59.0,-99.9,-100.00,West,259,23.0,-999.0,0,-99.99,,,-99.99,,2013-06-09 15:53:00,
2013-06-09 11:03:00,59.0,-99.9,-100.00,North,-999,23.0,-999.0,0,-99.99,,,-99.99,,2013-06-09 16:03:00,
2013-06-09 11:13:00,60.0,-99.9,-100.00,North,-999,26.0,-999.0,0,-99.99,,,-99.99,,2013-06-09 16:13:00,
2013-06-09 11:23:00,60.0,-99.9,-100.00,North,-999,20.0,-999.0,0,-99.99,,,-99.99,,2013-06-09 16:23:00,
2013-06-09 11:33:00,60.0,-99.9,-100.00,North,-999,20.0,-999.0,0,-99.99,,,-99.99,,2013-06-09 16:33:00,
2013-06-09 11:43:00,60.0,-99.9,-100.00,North,-999,24.0,-999.0,0,-99.99,,,-99.99,,2013-06-09 16:43:00,
2013-06-09 11:53:00,60.0,-99.9,-100.00,North,-999,24.0,-999.0,0,-99.99,,,-99.99,,2013-06-09 16:53:00,
2013-06-09 12:03:00,60.0,-99.9,-100.00,South,174,23.0,-999.0,0,-99.99,,,-99.99,,2013-06-09 17:03:00,
2013-06-09 12:12:00,60.0,-99.9,-100.00,North,-999,24.0,-999.0,0,-99.99,,,-99.99,,2013-06-09 17:12:00,
2013-06-09 12:22:00,61.0,-99.9,-100.00,South,174,14.0,-999.0,0,-99.99,,,-99.99,,2013-06-09 17:22:00,
2013-06-09 12:32:00,61.0,-99.9,-100.00,North,-999,15.0,-999.0,0,-99.99,,,-99.99,,2013-06-09 17:32:00,
2013-06-09 12:42:00,61.0,-99.9,-100.00,NNW,343,19.0,-999.0,0,-99.99,,,-99.99,,2013-06-09 17:42:00,
2013-06-09 12:52:00,61.0,-99.9,-100.00,NNW,343,19.0,-999.0,0,-99.99,,,-99.99,,2013-06-09 17:52:00,
2013-06-09 13:03:00,61.0,-99.9,-100.00,East,89,26.0,-999.0,0,-99.99,,,-99.99,,2013-06-09 18:03:00,
2013-06-09 13:12:00,60.0,-99.9,-100.00,West,261,18.0,-999.0,0,-99.99,,,-99.99,,2013-06-09 18:12:00,
2013-06-09 13:22:00,61.0,-99.9,-100.00,West,259,19.0,-999.0,0,-99.99,,,-99.99,,2013-06-09 18:22:00,
2013-06-09 13:33:00,61.0,-99.9,-100.00,North,-999,21.0,-999.0,0,-99.99,,,-99.99,,2013-06-09 18:33:00,
2013-06-09 13:42:00,61.0,-99.9,-100.00,West,259,21.0,-999.0,0,-99.99,,,-99.99,,2013-06-09 18:42:00,
2013-06-09 13:52:00,61.0,-99.9,-100.00,West,259,21.0,-999.0,0,-99.99,,,-99.99,,2013-06-09 18:52:00,
2013-06-09 14:03:00,61.0,-99.9,-100.00,South,173,18.0,-999.0,0,-99.99,,,-99.99,,2013-06-09 19:03:00,
2013-06-09 14:13:00,61.0,-99.9,-100.00,North,-999,16.0,-999.0,0,-99.99,,,-99.99,,2013-06-09 19:13:00,
2013-06-09 14:22:00,61.0,-99.9,-100.00,North,-999,21.0,-999.0,0,-99.99,,,-99.99,,2013-06-09 19:22:00,
2013-06-09 14:32:00,61.0,-99.9,-100.00,North,-999,21.0,-999.0,0,-99.99,,,-99.99,,2013-06-09 19:32:00,
2013-06-09 14:43:00,62.0,-99.9,-100.00,West,259,21.0,-999.0,0,-99.99,,,-99.99,,2013-06-09 19:43:00,
2013-06-09 14:52:00,62.0,-99.9,-100.00,NNW,335,15.0,-999.0,0,-99.99,,,-99.99,,2013-06-09 19:52:00,
2013-06-09 15:03:00,63.0,-99.9,-100.00,North,-999,21.0,-999.0,0,-99.99,,,-99.99,,2013-06-09 20:03:00,
2013-06-09 15:12:00,63.0,-99.9,-100.00,North,-999,21.0,-999.0,0,-99.99,,,-99.99,,2013-06-09 20:12:00,
2013-06-09 15:22:00,63.0,-99.9,-100.00,NNW,342,20.0,-999.0,0,-99.99,,,-99.99,,2013-06-09 20:22:00,
2013-06-09 15:32:00,63.0,-99.9,-100.00,North,4,24.0,-999.0,0,-99.99,,,-99.99,,2013-06-09 20:32:00,
2013-06-09 15:43:00,63.0,-99.9,-100.00,North,-999,24.0,-999.0,0,-99.99,,,-99.99,,2013-06-09 20:43:00,
2013-06-09 15:53:00,63.0,-99.9,-100.00,West,259,34.0,-999.0,0,-99.99,,,-99.99,,2013-06-09 20:53:00,
2013-06-09 16:03:00,62.0,-99.9,-100.00,North,-999,22.0,-999.0,0,-99.99,,,-99.99,,2013-06-09 21:03:00,
2013-06-09 16:12:00,62.0,-99.9,-100.00,North,-999,25.0,-999.0,0,-99.99,,,-99.99,,2013-06-09 21:12:00,
2013-06-09 16:22:00,62.0,-99.9,-100.00,North,-999,23.0,-999.0,0,-99.99,,,-99.99,,2013-06-09 21:22:00,
2013-06-09 16:33:00,62.0,-99.9,-100.00,North,-999,22.0,-999.0,0,-99.99,,,-99.99,,2013-06-09 21:33:00,
2013-06-09 16:44:00,63.0,-99.9,-100.00,East,90,27.0,-999.0,0,-99.99,,,-99.99,,2013-06-09 21:44:00,
2013-06-09 16:53:00,63.0,-99.9,-100.00,South,173,27.0,-999.0,0,-99.99,,,-99.99,,2013-06-09 21:53:00,
2013-06-09 17:03:00,63.0,-99.9,-100.00,North,-999,23.0,-999.0,0,-99.99,,,-99.99,,2013-06-09 22:03:00,
2013-06-09 17:13:00,64.0,-99.9,-100.00,North,-999,24.0,-999.0,0,-99.99,,,-99.99,,2013-06-09 22:13:00,
2013-06-09 17:23:00,65.0,-99.9,-100.00,North,-999,15.0,-999.0,0,-99.99,,,-99.99,,2013-06-09 22:23:00,
2013-06-09 17:33:00,64.0,-99.9,-100.00,East,90,28.0,-999.0,0,-99.99,,,-99.99,,2013-06-09 22:33:00,
2013-06-09 17:42:00,64.0,-99.9,-100.00,North,-999,27.0,-999.0,0,-99.99,,,-99.99,,2013-06-09 22:42:00,
2013-06-09 17:52:00,64.0,-99.9,-100.00,North,-999,27.0,-999.0,0,-99.99,,,-99.99,,2013-06-09 22:52:00,
2013-06-09 18:02:00,64.0,-99.9,-100.00,North,-999,19.0,-999.0,0,-99.99,,,-99.99,,2013-06-09 23:02:00,
2013-06-09 18:12:00,64.0,-99.9,-100.00,NNW,342,20.0,-999.0,0,-99.99,,,-99.99,,2013-06-09 23:12:00,
2013-06-09 18:22:00,63.0,-99.9,-100.00,North,-999,24.0,-999.0,0,-99.99,,,-99.99,,2013-06-09 23:22:00,
2013-06-09 18:32:00,63.0,-99.9,-100.00,North,-999,27.0,-999.0,0,-99.99,,,-99.99,,2013-06-09 23:32:00,
2013-06-09 18:43:00,63.0,-99.9,-100.00,ESE,115,18.0,-999.0,0,-99.99,,,-99.99,,2013-06-09 23:43:00,
2013-06-09 18:52:00,63.0,-99.9,-100.00,West,260,20.0,-999.0,0,-99.99,,,-99.99,,2013-06-09 23:52:00,
2013-06-09 19:02:00,63.0,-99.9,-100.00,NNW,343,19.0,-999.0,0,-99.99,,,-99.99,,2013-06-10 00:02:00,
2013-06-09 19:13:00,63.0,-99.9,-100.00,North,11,18.0,-999.0,0,-99.99,,,-99.99,,2013-06-10 00:13:00,
2013-06-09 19:22:00,63.0,-99.9,-100.00,South,174,23.0,-999.0,0,-99.99,,,-99.99,,2013-06-10 00:22:00,
2013-06-09 19:32:00,63.0,-99.9,-100.00,North,5,21.0,-999.0,0,-99.99,,,-99.99,,2013-06-10 00:32:00,
2013-06-09 19:42:00,63.0,-99.9,-100.00,North,-999,19.0,-999.0,0,-99.99,,,-99.99,,2013-06-10 00:42:00,
2013-06-09 19:52:00,63.0,-99.9,-100.00,North,-999,19.0,-999.0,0,-99.99,,,-99.99,,2013-06-10 00:52:00,
2013-06-09 20:03:00,63.0,-99.9,-100.00,North,-999,19.0,-999.0,0,-99.99,,,-99.99,,2013-06-10 01:03:00,
2013-06-09 20:12:00,63.0,-99.9,-100.00,West,259,16.0,-999.0,0,-99.99,,,-99.99,,2013-06-10 01:12:00,
2013-06-09 20:22:00,63.0,-99.9,-100.00,West,259,17.0,-999.0,0,-99.99,,,-99.99,,2013-06-10 01:22:00,
2013-06-09 20:32:00,63.0,-99.9,-100.00,East,91,16.0,-999.0,0,-99.99,,,-99.99,,2013-06-10 01:32:00,
2013-06-09 20:43:00,63.0,-99.9,-100.00,NE,39,14.0,-999.0,0,-99.99,,,-99.99,,2013-06-10 01:43:00,
2013-06-09 20:52:00,63.0,-99.9,-100.00,ENE,74,16.0,-999.0,0,-99.99,,,-99.99,,2013-06-10 01:52:00,
2013-06-09 21:02:00,62.0,-99.9,-100.00,North,-999,12.0,-999.0,0,-99.99,,,-99.99,,2013-06-10 02:02:00,
2013-06-09 21:12:00,62.0,-99.9,-100.00,NNE,12,11.0,-999.0,0,-99.99,,,-99.99,,2013-06-10 02:12:00,
2013-06-09 21:22:00,61.0,-99.9,-100.00,East,96,9.0,-999.0,0,-99.99,,,-99.99,,2013-06-10 02:22:00,
2013-06-09 21:32:00,61.0,-99.9,-100.00,North,10,9.0,-999.0,0,-99.99,,,-99.99,,2013-06-10 02:32:00,
2013-06-09 21:42:00,61.0,-99.9,-100.00,West,259,8.0,-999.0,0,-99.99,,,-99.99,,2013-06-10 02:42:00,
2013-06-09 21:52:00,61.0,-99.9,-100.00,West,259,8.0,-999.0,0,-99.99,,,-99.99,,2013-06-10 02:52:00,
2013-06-09 22:02:00,60.0,-99.9,-100.00,West,259,5.0,-999.0,0,-99.99,,,-99.99,,2013-06-10 03:02:00,
2013-06-09 22:12:00,60.0,-99.9,-100.00,NNE,28,4.0,-999.0,0,-99.99,,,-99.99,,2013-06-10 03:12:00,
2013-06-09 22:22:00,59.0,-99.9,-100.00,North,-999,3.0,-999.0,0,-99.99,,,-99.99,,2013-06-10 03:22:00,
2013-06-09 22:33:00,59.0,-99.9,-100.00,NNW,343,6.0,-999.0,0,-99.99,,,-99.99,,2013-06-10 03:33:00,
2013-06-09 22:43:00,59.0,-99.9,-100.00,North,-999,7.0,-999.0,0,-99.99,,,-99.99,,2013-06-10 03:43:00,
2013-06-09 22:53:00,58.0,-99.9,-100.00,North,-999,6.0,-999.0,0,-99.99,,,-99.99,,2013-06-10 03:53:00,
2013-06-09 23:03:00,58.0,-99.9,-100.00,North,-999,4.0,-999.0,0,-99.99,,,-99.99,,2013-06-10 04:03:00,
2013-06-09 23:13:00,58.0,-99.9,-100.00,NNW,333,5.0,-999.0,0,-99.99,,,-99.99,,2013-06-10 04:13:00,
2013-06-09 23:23:00,58.0,-99.9,-100.00,NNW,338,5.0,-999.0,0,-99.99,,,-99.99,,2013-06-10 04:23:00,
2013-06-09 23:33:00,58.0,-99.9,-100.00,NNW,337,5.0,-999.0,0,-99.99,,,-99.99,,2013-06-10 04:33:00,
2013-06-09 23:42:00,58.0,-99.9,-100.00,NNW,340,5.0,-999.0,0,-99.99,,,-99.99,,2013-06-10 04:42:00,
2013-06-09 23:53:00,57.0,-99.9,-100.00,NNW,342,5.0,-999.0,0,-99.99,,,-99.99,,2013-06-10 04:53:00,